Location: Newark
(44.2003°N, 3.2583°E)
Time: 22:59:24
(UTC+00:00)

Explorer 7 - Pass Details

Date: 27 October 2019
Orbit: 485 x 680 km, 50.3° (Epoch: 20 November)

Event Time Altitude Azimuth Distance (km) Brightness Sun altitude
Rises 12:14:16 0° 294° (WNW) 2,552 10.1 32.2°
Reaches altitude 10° 12:16:33 10° 303° (WNW) 1,669 9.2 32.1°
Maximum altitude 12:20:04 36° 12° (NNE) 782 7.4 31.9°
Drops below altitude 10° 12:23:37 10° 81° (E) 1,695 9.2 31.8°
Sets 12:25:57 0° 90° (E) 2,598 10.1 31.7°
